FW5354 Weather Reports


Display with metric or nautical units.
time (UTC)temp
F
wind
direction
speed
MPH
gust
MPH
rain 1hr
in
rain 24hr
in
rain mn
in
humidity
%
barometer
mb
20260505021509 74 111 3.0 8.0 0.00 0.00 0.00 74 1008.3
20260505020006 75 79 2.0 7.0 0.00 0.00 0.00 73 1008.3
20260505014508 75 108 2.0 6.0 0.00 0.00 0.00 73 1008.2
20260505013003 75 103 1.0 4.0 0.00 0.00 0.00 72 1008.0
20260505011504 75 101 1.0 5.0 0.00 0.00 0.00 72 1007.9
20260505010002 76 105 1.0 6.0 0.00 0.00 0.00 72 1008.0
20260505004505 76 97 2.0 7.0 0.00 0.00 0.00 71 1007.8
20260505003103 76 102 1.0 3.0 0.00 0.00 0.00 71 1007.8
20260505001502 77 105 1.0 4.0 0.00 0.00 0.00 70 1007.9
20260505000104 77 99 2.0 5.0 0.00 0.00 0.00 69 1008.0
20260504234627 77 105 1.0 7.0 0.00 0.00 0.00 69 1007.9
20260504233058 78 103 1.0 5.0 0.00 0.00 0.00 68 1008.2
20260504231556 79 96 1.0 5.0 0.00 0.00 0.00 67 1008.3
20260504230051 79 93 2.0 7.0 0.00 0.00 0.00 65 1008.4
20260504224559 79 104 0.0 3.0 0.00 0.00 0.00 64 1008.5
20260504223049 80 101 2.0 5.0 0.00 0.00 0.00 63 1008.5
20260504221552 80 105 3.0 7.0 0.00 0.00 0.00 61 1008.6
20260504220045 80 107 3.0 11.0 0.00 0.00 0.00 60 1008.8
20260504214549 81 101 2.0 5.0 0.00 0.00 0.00 59 1009.0
20260504213048 81 101 1.0 5.0 0.00 0.00 0.00 58 1009.1
20260504211544 81 103 1.0 2.0 0.00 0.00 0.00 57 1009.3
20260504210053 82 110 0.0 4.0 0.00 0.00 0.00 57 1009.4
20260504204618 82 100 2.0 7.0 0.00 0.00 0.00 55 1009.8
20260504203040 83 98 0.0 1.0 0.00 0.00 0.00 54 1009.9
20260504201539 83 115 0.0 3.0 0.00 0.00 0.00 54 1010.2
20260504200038 82 105 0.0 3.0 0.00 0.00 0.00 54 1010.5
20260504194543 82 101 1.0 4.0 0.00 0.00 0.00 55 1010.7
20260504193032 83 105 1.0 4.0 0.00 0.00 0.00 53 1010.9
20260504191530 84 113 0.0 2.0 0.00 0.00 0.00 53 1011.0
20260504190033 82 104 0.0 3.0 0.00 0.00 0.00 57 1011.2
20260504184526 83 102 0.0 5.0 0.00 0.00 0.00 54 1011.5
20260504183027 82 115 0.0 4.0 0.00 0.00 0.00 54 1011.5
20260504181524 81 96 1.0 5.0 0.00 0.00 0.00 57 1011.6
20260504180018 81 104 0.0 5.0 0.00 0.00 0.00 55 1012.1
20260504174518 81 101 2.0 6.0 0.00 0.00 0.00 53 1012.2
20260504173015 79 107 0.0 5.0 0.00 0.00 0.00 56 1012.5
20260504171532 79 96 2.0 6.0 0.00 0.00 0.00 58 1012.6
20260504150104 75 103 0.0 3.0 0.00 0.00 0.00 63 1013.7
20260504081539 62 100 0.0 0.0 0.00 0.00 0.00 75 1014.0
20260504050018 65 100 0.0 0.0 0.00 0.00 0.00 68 1016.1
20260504044523 65 100 0.0 0.0 0.00 0.00 0.00 66 1016.1
20260504043016 66 100 0.0 1.0 0.00 0.00 0.00 64 1016.2
20260504041511 67 104 0.0 1.0 0.00 0.00 0.00 62 1016.3
20260504040010 67 105 1.0 4.0 0.00 0.00 0.00 61 1016.2
20260504034508 68 109 0.0 0.0 0.00 0.00 0.00 60 1016.3
20260504033007 68 99 0.0 0.0 0.00 0.00 0.00 59 1016.4
20260504031504 68 101 0.0 3.0 0.00 0.00 0.00 58 1016.2
20260504030002 69 103 0.0 0.0 0.00 0.00 0.00 57 1016.1
20260504024559 69 98 0.0 0.0 0.00 0.00 0.00 56 1015.8
20260504023057 70 103 0.0 0.0 0.00 0.00 0.00 54 1015.7